| time (UTC) | temp F | wind direction | speed MPH | gust MPH | rain 1hr in | rain 24hr in | rain mn in | humidity % | barometer mb |
| 20260502152051 | 45 | 89 | 9.0 | 13.0 | 0.00 | 0.00 | 0.00 | 51 | 1012.2 |
| 20260502151548 | 46 | 352 | 13.0 | 15.0 | 0.00 | 0.00 | 0.00 | 50 | 1012.2 |
| 20260502151045 | 45 | 349 | 3.0 | 8.0 | 0.00 | 0.00 | 0.00 | 51 | 1012.2 |
| 20260502150543 | 45 | 294 | 3.0 | 7.0 | 0.00 | 0.00 | 0.00 | 52 | 1012.1 |
| 20260502130428 | 39 | 325 | 0.0 | 1.0 | 0.00 | 0.00 | 0.00 | 74 | 1012.1 |
| 20260502123410 | 38 | 35 | 0.0 | 0.0 | 0.00 | 0.00 | 0.00 | 80 | 1012.1 |
| 20260502122908 | 38 | 313 | 0.0 | 0.0 | 0.00 | 0.00 | 0.00 | 81 | 1011.7 |
| 20260502122404 | 38 | 333 | 0.0 | 0.0 | 0.00 | 0.00 | 0.00 | 81 | 1012.1 |
| 20260502121902 | 37 | 355 | 0.0 | 0.0 | 0.00 | 0.00 | 0.00 | 83 | 1012.2 |
| 20260502121358 | 37 | 307 | 0.0 | 0.0 | 0.00 | 0.00 | 0.00 | 84 | 1011.9 |
| 20260502120856 | 37 | 70 | 0.0 | 0.0 | 0.00 | 0.00 | 0.00 | 84 | 1012.1 |
| 20260502120352 | 37 | 355 | 0.0 | 0.0 | 0.00 | 0.00 | 0.00 | 86 | 1012.1 |
| 20260502115849 | 37 | 19 | 1.0 | 2.0 | 0.00 | 0.00 | 0.00 | 87 | 1011.8 |
| 20260502115347 | 36 | 334 | 0.0 | 0.0 | 0.00 | 0.00 | 0.00 | 87 | 1011.8 |
| 20260502114837 | 36 | 358 | 0.0 | 0.0 | 0.00 | 0.00 | 0.00 | 88 | 1011.8 |
| 20260502114334 | 36 | 52 | 0.0 | 0.0 | 0.00 | 0.00 | 0.00 | 88 | 1011.7 |
| 20260502113831 | 36 | 333 | 0.0 | 0.0 | 0.00 | 0.00 | 0.00 | 89 | 1011.7 |
| 20260502113328 | 36 | 72 | 0.0 | 0.0 | 0.00 | 0.00 | 0.00 | 89 | 1011.7 |
| 20260502112827 | 36 | 304 | 0.0 | 0.0 | 0.00 | 0.00 | 0.00 | 90 | 1012.1 |
| 20260502112324 | 35 | 15 | 0.0 | 0.0 | 0.00 | 0.00 | 0.00 | 91 | 1011.7 |
| 20260502111821 | 35 | 349 | 0.0 | 0.0 | 0.00 | 0.00 | 0.00 | 91 | 1011.6 |
| 20260502111319 | 35 | 332 | 0.0 | 0.0 | 0.00 | 0.00 | 0.00 | 92 | 1011.8 |
| 20260502110816 | 34 | 317 | 0.0 | 0.0 | 0.00 | 0.00 | 0.00 | 92 | 1011.7 |
| 20260502110314 | 34 | 340 | 0.0 | 0.0 | 0.00 | 0.00 | 0.00 | 92 | 1011.8 |
| 20260502105812 | 34 | 303 | 0.0 | 0.0 | 0.00 | 0.00 | 0.00 | 91 | 1011.8 |
| 20260502105308 | 34 | 313 | 0.0 | 0.0 | 0.00 | 0.00 | 0.00 | 91 | 1011.5 |
| 20260502104806 | 34 | 306 | 0.0 | 0.0 | 0.00 | 0.00 | 0.00 | 91 | 1011.6 |
| 20260502104303 | 34 | 60 | 0.0 | 0.0 | 0.00 | 0.00 | 0.00 | 91 | 1011.4 |
| 20260502103800 | 34 | 72 | 0.0 | 0.0 | 0.00 | 0.00 | 0.00 | 90 | 1011.5 |
| 20260502103257 | 34 | 3 | 0.0 | 0.0 | 0.00 | 0.00 | 0.00 | 90 | 1011.6 |
| 20260502102754 | 34 | 320 | 0.0 | 0.0 | 0.00 | 0.00 | 0.00 | 90 | 1011.6 |
| 20260502102250 | 35 | 35 | 0.0 | 0.0 | 0.00 | 0.00 | 0.00 | 89 | 1011.8 |
| 20260502101749 | 35 | 353 | 0.0 | 0.0 | 0.00 | 0.00 | 0.00 | 89 | 1012.1 |
| 20260502101246 | 35 | 48 | 0.0 | 0.0 | 0.00 | 0.00 | 0.00 | 89 | 1011.7 |
| 20260502100744 | 35 | 49 | 0.0 | 0.0 | 0.00 | 0.00 | 0.00 | 88 | 1011.9 |
| 20260502100238 | 35 | 12 | 0.0 | 0.0 | 0.00 | 0.00 | 0.00 | 88 | 1011.7 |
| 20260502091211 | 36 | 355 | 0.0 | 0.0 | 0.00 | 0.00 | 0.00 | 84 | 1012.1 |
| 20260502090708 | 36 | 280 | 0.0 | 0.0 | 0.00 | 0.00 | 0.00 | 83 | 1011.8 |
| 20260502090200 | 36 | 327 | 0.0 | 0.0 | 0.00 | 0.00 | 0.00 | 82 | 1011.9 |
| 20260502071055 | 39 | 17 | 0.0 | 1.0 | 0.00 | 0.00 | 0.00 | 72 | 1011.8 |
| 20260502070553 | 39 | 230 | 0.0 | 0.0 | 0.00 | 0.00 | 0.00 | 71 | 1011.7 |
| 20260502070050 | 39 | 4 | 0.0 | 2.0 | 0.00 | 0.00 | 0.00 | 71 | 1012.1 |
| 20260502065549 | 39 | 46 | 0.0 | 0.0 | 0.00 | 0.00 | 0.00 | 70 | 1011.9 |
| 20260502065046 | 40 | 67 | 0.0 | 0.0 | 0.00 | 0.00 | 0.00 | 70 | 1012.1 |
| 20260502064544 | 40 | 336 | 0.0 | 0.0 | 0.00 | 0.00 | 0.00 | 70 | 1012.1 |
| 20260502064041 | 40 | 281 | 0.0 | 0.0 | 0.00 | 0.00 | 0.00 | 69 | 1012.1 |
| 20260502063539 | 40 | 38 | 0.0 | 0.0 | 0.00 | 0.00 | 0.00 | 69 | 1012.1 |
| 20260502063036 | 40 | 349 | 0.0 | 0.0 | 0.00 | 0.00 | 0.00 | 69 | 1012.2 |
| 20260502062533 | 40 | 352 | 0.0 | 0.0 | 0.00 | 0.00 | 0.00 | 68 | 1012.3 |
| 20260502062032 | 40 | 330 | 0.0 | 0.0 | 0.00 | 0.00 | 0.00 | 68 | 1012.4 |
| 20260502061530 | 40 | 16 | 2.0 | 5.0 | 0.00 | 0.00 | 0.00 | 68 | 1012.4 |
| 20260502061026 | 40 | 336 | 2.0 | 8.0 | 0.00 | 0.00 | 0.00 | 67 | 1012.5 |
| 20260502060521 | 40 | 52 | 0.0 | 0.0 | 0.00 | 0.00 | 0.00 | 67 | 1012.6 |
| 20260502060018 | 40 | 355 | 0.0 | 0.0 | 0.00 | 0.00 | 0.00 | 67 | 1012.5 |
| 20260502055516 | 40 | 8 | 2.0 | 6.0 | 0.00 | 0.00 | 0.00 | 67 | 1012.5 |
| 20260502055015 | 40 | 238 | 0.0 | 0.0 | 0.00 | 0.00 | 0.00 | 67 | 1012.2 |
| 20260502054513 | 40 | 19 | 1.0 | 6.0 | 0.00 | 0.00 | 0.00 | 67 | 1012.2 |
| 20260502054010 | 41 | 275 | 1.0 | 5.0 | 0.00 | 0.00 | 0.00 | 68 | 1012.2 |
| 20260502053506 | 41 | 196 | 1.0 | 5.0 | 0.00 | 0.00 | 0.00 | 69 | 1012.3 |
| 20260502053005 | 41 | 345 | 5.0 | 11.0 | 0.00 | 0.00 | 0.00 | 72 | 1012.2 |
| 20260502052502 | 41 | 358 | 0.0 | 0.0 | 0.00 | 0.00 | 0.00 | 73 | 1012.3 |
| 20260502052000 | 41 | 21 | 4.0 | 9.0 | 0.00 | 0.00 | 0.00 | 73 | 1012.5 |
| 20260502051458 | 41 | 32 | 4.0 | 9.0 | 0.00 | 0.00 | 0.00 | 75 | 1012.3 |
| 20260502050955 | 41 | 351 | 2.0 | 6.0 | 0.00 | 0.00 | 0.00 | 77 | 1012.3 |
| 20260502050451 | 42 | 85 | 2.0 | 8.0 | 0.00 | 0.00 | 0.00 | 79 | 1012.3 |
| 20260502045949 | 42 | 231 | 0.0 | 1.0 | 0.00 | 0.00 | 0.00 | 81 | 1012.2 |
| 20260502045445 | 42 | 348 | 1.0 | 5.0 | 0.00 | 0.00 | 0.00 | 81 | 1012.7 |
| 20260502044942 | 42 | 2 | 1.0 | 3.0 | 0.00 | 0.00 | 0.00 | 81 | 1012.7 |
| 20260502044438 | 42 | 298 | 4.0 | 7.0 | 0.00 | 0.00 | 0.00 | 81 | 1012.9 |
| 20260502043935 | 42 | 357 | 5.0 | 10.0 | 0.00 | 0.00 | 0.00 | 81 | 1012.7 |
| 20260502043433 | 42 | 41 | 7.0 | 13.0 | 0.00 | 0.00 | 0.00 | 81 | 1012.6 |
| 20260502042932 | 42 | 274 | 1.0 | 7.0 | 0.00 | 0.00 | 0.00 | 82 | 1012.8 |
| 20260502042430 | 43 | 318 | 0.0 | 0.0 | 0.00 | 0.00 | 0.00 | 82 | 1012.3 |
| 20260502041927 | 43 | 353 | 0.0 | 1.0 | 0.00 | 0.00 | 0.00 | 82 | 1012.6 |
| 20260502041425 | 43 | 36 | 0.0 | 0.0 | 0.00 | 0.00 | 0.00 | 82 | 1012.4 |
| 20260502040921 | 43 | 2 | 6.0 | 10.0 | 0.00 | 0.00 | 0.00 | 81 | 1012.4 |
| 20260502040418 | 43 | 284 | 0.0 | 1.0 | 0.00 | 0.00 | 0.00 | 81 | 1012.4 |
| 20260502035914 | 43 | 344 | 0.0 | 0.0 | 0.00 | 0.00 | 0.00 | 81 | 1012.4 |
| 20260502035411 | 43 | 314 | 0.0 | 0.0 | 0.00 | 0.00 | 0.00 | 81 | 1012.7 |
| 20260502034908 | 43 | 359 | 0.0 | 0.0 | 0.00 | 0.00 | 0.00 | 80 | 1012.6 |
| 20260502034407 | 43 | 27 | 8.0 | 14.0 | 0.00 | 0.00 | 0.00 | 80 | 1012.6 |
| 20260502033905 | 43 | 334 | 3.0 | 8.0 | 0.00 | 0.00 | 0.00 | 80 | 1012.5 |
| 20260502033402 | 43 | 252 | 2.0 | 5.0 | 0.00 | 0.00 | 0.00 | 80 | 1012.6 |
| 20260502032859 | 44 | 28 | 0.0 | 0.0 | 0.00 | 0.00 | 0.00 | 79 | 1012.5 |
| 20260502032355 | 44 | 341 | 5.0 | 8.0 | 0.00 | 0.00 | 0.00 | 79 | 1012.6 |
| 20260502031853 | 44 | 327 | 6.0 | 11.0 | 0.00 | 0.00 | 0.00 | 78 | 1012.7 |
| 20260502031351 | 44 | 351 | 2.0 | 8.0 | 0.00 | 0.00 | 0.00 | 78 | 1012.7 |
| 20260502030848 | 44 | 45 | 1.0 | 3.0 | 0.00 | 0.00 | 0.00 | 77 | 1012.7 |
| 20260502030347 | 44 | 53 | 0.0 | 1.0 | 0.00 | 0.00 | 0.00 | 77 | 1012.6 |
| 20260502025844 | 44 | 330 | 3.0 | 8.0 | 0.00 | 0.00 | 0.00 | 76 | 1012.9 |
| 20260502025341 | 44 | 287 | 1.0 | 3.0 | 0.00 | 0.00 | 0.00 | 77 | 1012.5 |
| 20260502024839 | 44 | 14 | 8.0 | 9.0 | 0.00 | 0.00 | 0.00 | 77 | 1012.6 |
| 20260502024337 | 44 | 330 | 3.0 | 7.0 | 0.00 | 0.00 | 0.00 | 77 | 1012.5 |
| 20260502023834 | 44 | 70 | 0.0 | 0.0 | 0.00 | 0.00 | 0.00 | 77 | 1012.3 |
| 20260502023332 | 44 | 328 | 4.0 | 10.0 | 0.00 | 0.00 | 0.00 | 77 | 1012.3 |
| 20260502022830 | 44 | 327 | 0.0 | 0.0 | 0.00 | 0.00 | 0.00 | 77 | 1012.1 |
| 20260502022326 | 44 | 2 | 1.0 | 7.0 | 0.00 | 0.00 | 0.00 | 77 | 1011.8 |
| 20260502021822 | 44 | 358 | 7.0 | 10.0 | 0.00 | 0.00 | 0.00 | 76 | 1011.9 |
| 20260502021320 | 44 | 283 | 9.0 | 15.0 | 0.00 | 0.00 | 0.00 | 75 | 1011.8 |
| 20260502020817 | 45 | 154 | 2.0 | 8.0 | 0.00 | 0.00 | 0.00 | 76 | 1011.8 |
| 20260502020315 | 45 | 357 | 6.0 | 13.0 | 0.00 | 0.00 | 0.00 | 75 | 1011.9 |
| 20260502015811 | 45 | 333 | 13.0 | 17.0 | 0.00 | 0.00 | 0.00 | 75 | 1011.8 |
| 20260502015308 | 45 | 285 | 3.0 | 11.0 | 0.00 | 0.00 | 0.00 | 75 | 1011.5 |
| 20260502014806 | 45 | 5 | 10.0 | 15.0 | 0.00 | 0.00 | 0.00 | 76 | 1011.0 |
| 20260502014302 | 45 | 61 | 5.0 | 9.0 | 0.00 | 0.00 | 0.00 | 76 | 1011.1 |
| 20260502013758 | 46 | 300 | 6.0 | 15.0 | 0.00 | 0.00 | 0.00 | 76 | 1011.1 |
| 20260502013254 | 46 | 77 | 6.0 | 14.0 | 0.00 | 0.00 | 0.00 | 76 | 1011.0 |
| 20260502012751 | 46 | 24 | 11.0 | 16.0 | 0.00 | 0.00 | 0.00 | 75 | 1010.8 |
| 20260502012249 | 46 | 11 | 11.0 | 14.0 | 0.00 | 0.00 | 0.00 | 76 | 1010.6 |
| 20260502011746 | 46 | 353 | 0.0 | 2.0 | 0.00 | 0.00 | 0.00 | 76 | 1011.0 |
| 20260502011242 | 46 | 356 | 3.0 | 9.0 | 0.00 | 0.00 | 0.00 | 77 | 1010.7 |
| 20260502010740 | 47 | 7 | 6.0 | 11.0 | 0.00 | 0.00 | 0.00 | 77 | 1010.8 |
| 20260502010235 | 47 | 88 | 11.0 | 17.0 | 0.00 | 0.00 | 0.00 | 76 | 1010.6 |
| 20260502005733 | 47 | 40 | 5.0 | 13.0 | 0.00 | 0.00 | 0.00 | 77 | 1010.7 |
| 20260502005231 | 47 | 75 | 7.0 | 14.0 | 0.00 | 0.00 | 0.00 | 77 | 1010.7 |
| 20260502004727 | 47 | 45 | 0.0 | 0.0 | 0.00 | 0.00 | 0.00 | 78 | 1010.5 |
| 20260502004223 | 47 | 267 | 7.0 | 11.0 | 0.00 | 0.00 | 0.00 | 78 | 1010.5 |
| 20260502003721 | 47 | 43 | 9.0 | 14.0 | 0.00 | 0.00 | 0.00 | 78 | 1010.6 |
| 20260502003219 | 47 | 37 | 1.0 | 5.0 | 0.00 | 0.00 | 0.00 | 78 | 1010.3 |
| 20260502002714 | 47 | 358 | 2.0 | 7.0 | 0.00 | 0.00 | 0.00 | 77 | 1010.4 |
| 20260502002212 | 47 | 8 | 5.0 | 13.0 | 0.00 | 0.00 | 0.00 | 77 | 1010.3 |
| 20260502001709 | 47 | 292 | 0.0 | 1.0 | 0.00 | 0.00 | 0.00 | 77 | 1010.3 |
| 20260502001207 | 48 | 359 | 5.0 | 9.0 | 0.00 | 0.00 | 0.00 | 76 | 1010.0 |
| 20260502000704 | 48 | 338 | 11.0 | 14.0 | 0.00 | 0.00 | 0.00 | 75 | 1010.0 |
| 20260502000203 | 48 | 331 | 5.0 | 14.0 | 0.00 | 0.00 | 0.00 | 74 | 1009.5 |
| 20260501235658 | 48 | 343 | 6.0 | 10.0 | 0.00 | 0.00 | 0.00 | 73 | 1009.9 |
| 20260501235154 | 49 | 340 | 2.0 | 6.0 | 0.00 | 0.00 | 0.00 | 72 | 1009.8 |
| 20260501234649 | 49 | 10 | 5.0 | 13.0 | 0.00 | 0.00 | 0.00 | 71 | 1009.3 |
| 20260501234147 | 50 | 13 | 3.0 | 9.0 | 0.00 | 0.00 | 0.00 | 70 | 1009.5 |
| 20260501233645 | 50 | 300 | 9.0 | 14.0 | 0.00 | 0.00 | 0.00 | 68 | 1009.5 |
| 20260501233142 | 51 | 36 | 9.0 | 14.0 | 0.00 | 0.00 | 0.00 | 66 | 1009.4 |
| 20260501232638 | 52 | 3 | 1.0 | 11.0 | 0.00 | 0.00 | 0.00 | 63 | 1009.0 |
| 20260501232136 | 53 | 350 | 7.0 | 16.0 | 0.00 | 0.00 | 0.00 | 59 | 1009.2 |
| 20260501231633 | 55 | 50 | 2.0 | 6.0 | 0.00 | 0.00 | 0.00 | 54 | 1009.0 |
| 20260501231131 | 56 | 323 | 2.0 | 6.0 | 0.00 | 0.00 | 0.00 | 48 | 1008.8 |
| 20260501230629 | 56 | 277 | 2.0 | 6.0 | 0.00 | 0.00 | 0.00 | 47 | 1008.9 |
| 20260501230127 | 56 | 325 | 6.0 | 9.0 | 0.00 | 0.00 | 0.00 | 45 | 1008.9 |
| 20260501225624 | 56 | 118 | 1.0 | 5.0 | 0.00 | 0.00 | 0.00 | 45 | 1008.8 |
| 20260501225120 | 57 | 310 | 2.0 | 3.0 | 0.00 | 0.00 | 0.00 | 44 | 1008.8 |
| 20260501224618 | 58 | 307 | 0.0 | 0.0 | 0.00 | 0.00 | 0.00 | 42 | 1008.9 |
| 20260501224115 | 58 | 274 | 0.0 | 2.0 | 0.00 | 0.00 | 0.00 | 41 | 1009.0 |
| 20260501223611 | 58 | 312 | 7.0 | 9.0 | 0.00 | 0.00 | 0.00 | 40 | 1008.9 |
| 20260501223108 | 58 | 65 | 2.0 | 8.0 | 0.00 | 0.00 | 0.00 | 41 | 1008.9 |
| 20260501222604 | 59 | 319 | 4.0 | 9.0 | 0.00 | 0.00 | 0.00 | 40 | 1009.0 |
| 20260501222101 | 59 | 298 | 9.0 | 14.0 | 0.00 | 0.00 | 0.00 | 39 | 1008.7 |
| 20260501221557 | 59 | 224 | 3.0 | 7.0 | 0.00 | 0.00 | 0.00 | 39 | 1008.7 |
| 20260501221055 | 59 | 71 | 4.0 | 10.0 | 0.00 | 0.00 | 0.00 | 38 | 1008.6 |
| 20260501220553 | 59 | 42 | 2.0 | 5.0 | 0.00 | 0.00 | 0.00 | 38 | 1008.9 |
| 20260501220049 | 60 | 34 | 6.0 | 11.0 | 0.00 | 0.00 | 0.00 | 36 | 1008.8 |
| 20260501215545 | 60 | 172 | 5.0 | 10.0 | 0.00 | 0.00 | 0.00 | 37 | 1009.0 |
| 20260501215041 | 60 | 264 | 7.0 | 16.0 | 0.00 | 0.00 | 0.00 | 36 | 1008.8 |
| 20260501214536 | 59 | 222 | 0.0 | 1.0 | 0.00 | 0.00 | 0.00 | 37 | 1008.7 |
| 20260501214032 | 60 | 173 | 4.0 | 8.0 | 0.00 | 0.00 | 0.00 | 35 | 1008.8 |
| 20260501213530 | 60 | 333 | 8.0 | 11.0 | 0.00 | 0.00 | 0.00 | 37 | 1008.9 |
| 20260501213025 | 59 | 2 | 2.0 | 7.0 | 0.00 | 0.00 | 0.00 | 36 | 1008.7 |
| 20260501212522 | 59 | 288 | 7.0 | 10.0 | 0.00 | 0.00 | 0.00 | 36 | 1008.8 |
| 20260501212019 | 60 | 310 | 8.0 | 15.0 | 0.00 | 0.00 | 0.00 | 36 | 1009.0 |
| 20260501211516 | 60 | 51 | 6.0 | 13.0 | 0.00 | 0.00 | 0.00 | 36 | 1008.8 |
| 20260501211014 | 60 | 42 | 6.0 | 9.0 | 0.00 | 0.00 | 0.00 | 35 | 1008.8 |
| 20260501210510 | 60 | 342 | 1.0 | 5.0 | 0.00 | 0.00 | 0.00 | 35 | 1008.8 |
| 20260501210007 | 60 | 304 | 0.0 | 2.0 | 0.00 | 0.00 | 0.00 | 36 | 1008.9 |
| 20260501205503 | 60 | 300 | 8.0 | 13.0 | 0.00 | 0.00 | 0.00 | 33 | 1009.1 |
| 20260501205001 | 61 | 196 | 9.0 | 11.0 | 0.00 | 0.00 | 0.00 | 33 | 1009.2 |
| 20260501204456 | 61 | 309 | 3.0 | 8.0 | 0.00 | 0.00 | 0.00 | 34 | 1009.1 |
| 20260501203953 | 61 | 313 | 8.0 | 11.0 | 0.00 | 0.00 | 0.00 | 33 | 1008.9 |
| 20260501203450 | 61 | 308 | 7.0 | 11.0 | 0.00 | 0.00 | 0.00 | 33 | 1009.2 |
| 20260501202948 | 60 | 305 | 12.0 | 16.0 | 0.00 | 0.00 | 0.00 | 32 | 1009.0 |
| 20260501202444 | 61 | 257 | 1.0 | 5.0 | 0.00 | 0.00 | 0.00 | 32 | 1008.8 |
| 20260501201940 | 61 | 330 | 8.0 | 11.0 | 0.00 | 0.00 | 0.00 | 32 | 1008.9 |
| 20260501201437 | 61 | 307 | 4.0 | 11.0 | 0.00 | 0.00 | 0.00 | 33 | 1008.8 |
| 20260501200934 | 60 | 302 | 7.0 | 14.0 | 0.00 | 0.00 | 0.00 | 32 | 1008.9 |
| 20260501200431 | 61 | 300 | 6.0 | 8.0 | 0.00 | 0.00 | 0.00 | 32 | 1008.9 |
| 20260501195929 | 61 | 281 | 5.0 | 11.0 | 0.00 | 0.00 | 0.00 | 31 | 1008.9 |
| 20260501195426 | 61 | 36 | 6.0 | 11.0 | 0.00 | 0.00 | 0.00 | 31 | 1009.1 |
| 20260501194921 | 60 | 308 | 4.0 | 9.0 | 0.00 | 0.00 | 0.00 | 32 | 1009.0 |
| 20260501194417 | 62 | 271 | 11.0 | 14.0 | 0.00 | 0.00 | 0.00 | 29 | 1009.1 |
| 20260501193913 | 62 | 320 | 5.0 | 11.0 | 0.00 | 0.00 | 0.00 | 29 | 1009.0 |
| 20260501193412 | 62 | 289 | 18.0 | 21.0 | 0.00 | 0.00 | 0.00 | 29 | 1008.9 |
| 20260501192909 | 62 | 177 | 0.0 | 0.0 | 0.00 | 0.00 | 0.00 | 33 | 1009.2 |
| 20260501192406 | 62 | 317 | 5.0 | 7.0 | 0.00 | 0.00 | 0.00 | 31 | 1009.3 |
| 20260501191903 | 61 | 284 | 2.0 | 7.0 | 0.00 | 0.00 | 0.00 | 29 | 1009.2 |
| 20260501191400 | 61 | 22 | 9.0 | 16.0 | 0.00 | 0.00 | 0.00 | 31 | 1009.6 |
| 20260501190857 | 62 | 275 | 1.0 | 5.0 | 0.00 | 0.00 | 0.00 | 29 | 1009.3 |
| 20260501190353 | 61 | 272 | 10.0 | 16.0 | 0.00 | 0.00 | 0.00 | 31 | 1009.5 |
| 20260501185848 | 61 | 293 | 6.0 | 10.0 | 0.00 | 0.00 | 0.00 | 31 | 1009.2 |
| 20260501185344 | 61 | 226 | 2.0 | 6.0 | 0.00 | 0.00 | 0.00 | 33 | 1009.5 |
| 20260501184840 | 60 | 275 | 12.0 | 16.0 | 0.00 | 0.00 | 0.00 | 29 | 1009.5 |
| 20260501184336 | 61 | 240 | 14.0 | 17.0 | 0.00 | 0.00 | 0.00 | 27 | 1009.8 |
| 20260501183832 | 61 | 246 | 0.0 | 1.0 | 0.00 | 0.00 | 0.00 | 31 | 1009.5 |
| 20260501183330 | 62 | 313 | 9.0 | 13.0 | 0.00 | 0.00 | 0.00 | 31 | 1009.3 |
| 20260501182826 | 60 | 215 | 3.0 | 5.0 | 0.00 | 0.00 | 0.00 | 29 | 1009.3 |
| 20260501182323 | 59 | 293 | 4.0 | 8.0 | 0.00 | 0.00 | 0.00 | 30 | 1009.4 |
| 20260501181819 | 61 | 261 | 7.0 | 10.0 | 0.00 | 0.00 | 0.00 | 28 | 1009.6 |
| 20260501181317 | 60 | 286 | 0.0 | 0.0 | 0.00 | 0.00 | 0.00 | 31 | 1009.5 |
| 20260501180814 | 60 | 248 | 0.0 | 0.0 | 0.00 | 0.00 | 0.00 | 32 | 1009.5 |
| 20260501180310 | 60 | 288 | 3.0 | 14.0 | 0.00 | 0.00 | 0.00 | 29 | 1009.8 |
| 20260501175808 | 59 | 167 | 4.0 | 6.0 | 0.00 | 0.00 | 0.00 | 28 | 1009.5 |
| 20260501175306 | 60 | 246 | 11.0 | 18.0 | 0.00 | 0.00 | 0.00 | 26 | 1010.0 |
| 20260501174800 | 60 | 278 | 12.0 | 17.0 | 0.00 | 0.00 | 0.00 | 26 | 1009.8 |
| 20260501174258 | 60 | 303 | 7.0 | 10.0 | 0.00 | 0.00 | 0.00 | 25 | 1009.9 |
| 20260501173756 | 60 | 218 | 2.0 | 8.0 | 0.00 | 0.00 | 0.00 | 27 | 1009.8 |
| 20260501173253 | 60 | 306 | 2.0 | 7.0 | 0.00 | 0.00 | 0.00 | 28 | 1010.2 |
| 20260501172748 | 61 | 298 | 12.0 | 14.0 | 0.00 | 0.00 | 0.00 | 28 | 1009.9 |
| 20260501172244 | 60 | 244 | 4.0 | 7.0 | 0.00 | 0.00 | 0.00 | 28 | 1009.9 |
| 20260501171739 | 59 | 230 | 1.0 | 3.0 | 0.00 | 0.00 | 0.00 | 30 | 1009.9 |
| 20260501171237 | 59 | 275 | 8.0 | 13.0 | 0.00 | 0.00 | 0.00 | 30 | 1009.9 |
| 20260501170734 | 58 | 213 | 0.0 | 0.0 | 0.00 | 0.00 | 0.00 | 32 | 1010.1 |
| 20260501170231 | 58 | 191 | 0.0 | 0.0 | 0.00 | 0.00 | 0.00 | 34 | 1010.1 |
| 20260501165728 | 59 | 267 | 9.0 | 11.0 | 0.00 | 0.00 | 0.00 | 33 | 1010.1 |
| 20260501165226 | 59 | 200 | 0.0 | 0.0 | 0.00 | 0.00 | 0.00 | 33 | 1010.5 |
| 20260501164723 | 56 | 229 | 0.0 | 0.0 | 0.00 | 0.00 | 0.00 | 35 | 1010.3 |
| 20260501164220 | 56 | 195 | 10.0 | 11.0 | 0.00 | 0.00 | 0.00 | 34 | 1010.3 |
| 20260501163716 | 56 | 195 | 12.0 | 17.0 | 0.00 | 0.00 | 0.00 | 34 | 1010.5 |
| 20260501163213 | 56 | 170 | 7.0 | 10.0 | 0.00 | 0.00 | 0.00 | 36 | 1010.4 |
| 20260501162709 | 55 | 198 | 6.0 | 9.0 | 0.00 | 0.00 | 0.00 | 38 | 1010.5 |
| 20260501162206 | 55 | 192 | 1.0 | 3.0 | 0.00 | 0.00 | 0.00 | 47 | 1010.6 |
| 20260501161703 | 55 | 118 | 0.0 | 0.0 | 0.00 | 0.00 | 0.00 | 48 | 1010.6 |
| 20260501161200 | 53 | 316 | 0.0 | 0.0 | 0.00 | 0.00 | 0.00 | 44 | 1010.7 |
| 20260501160656 | 53 | 189 | 0.0 | 0.0 | 0.00 | 0.00 | 0.00 | 41 | 1010.8 |
| 20260501160154 | 53 | 193 | 6.0 | 6.0 | 0.00 | 0.00 | 0.00 | 49 | 1011.0 |
| 20260501155651 | 53 | 124 | 0.0 | 0.0 | 0.00 | 0.00 | 0.00 | 51 | 1011.1 |
| 20260501155148 | 52 | 194 | 11.0 | 14.0 | 0.00 | 0.00 | 0.00 | 48 | 1011.1 |